Showing default

PROTOSAT-1, 61793

Orbit data source: Space-Track

PROTOSAT-1, 61793 is a Rwandan payload satellite in SSO that was launched on Tue, 05 Nov 2024 UTC via an ELECTRON launch vehicle from the Rocket Lab Launch Complex (RLLC). Payload-class satellites include a variety of spacecraft equipped with specific instruments for various scientific and technological missions. These include communications satellites like Starlink; space stations such as the ISS; scientific satellites like the Hubble; Earth observation satellites from companies like Planet Labs, Umbra, and HawkEye 360; GPS; miniature CubeSats for education and research; and military/defense satellites.

Loading next visibility...
Identifier
61793, 2024-201B
Orbit
SSO
Country
Flag of RWRW / RWA
Related business
Manufacturer
E-Space
Mission
Operational Commercial Communications
Bus & Motor
E-SPACE, Unknown motor
Mass
~100 kg wet, ~100 kg dry
Launch date (UTC)
2024-11-05 (10 months ago)
Launch vehicle
ELECTRON
Launch site
Rocket Lab Launch Complex (RLLC)
Object type
Payload
Rocket body
Debris
Shape & HBR
Box + 2 Pan, 0.5 m
Radar Cross Section
0.446 m², Large (>1 m²)

Expand to show TLE details & history
Last TLE update: 14 hours ago

TLE from 14 hours ago
0 PROTOSAT-1
1 61793U 24201B   25260.73370910  .00020080  00000-0  17495-2 0  9998
2 61793  97.9106 170.6253 0006768 353.9270   6.1868 14.96908172 47041
Epoch: 2025-09-17T17:36Z
TLE epoch observation values (Epoch: 2025-09-17T17:36:32.466Z)
Latitude
-0°
Longitude
-90.41539°
Altitude
574.82 km
Speed
7.576 km/s
True Right ascension
11h 22m 30s
True Declination
0° 00' 00"
Sunlit
Object was in daylight at epoch
Visualization orbit readout
Latitude
Unknown
Longitude
Unknown
Altitude
Unknown
Speed
Unknown
Apparent Right ascension
Unknown
Apparent Declination
Unknown
Sunlit
N/A
Visualization observer readout
Local Sidereal Time
00:47:24
Azimuth
Unknown
Elevation
Unknown
Doppler factor
Unknown
Orbital elements
Apogee altitude
578.18 km
Perigee altitude
568.77 km
Semi-major axis
6,951.612 km
Eccentricity
0.00068
Inclination
97.9106°
RAAN
170.6253°
Arg. of periapsis
353.927°
True anomaly
6.19517°
Mean anomaly
6.1868°
Eccentric anomaly
6.19098°
Mean motion
3.74468 °/min
Orbital period
96.14 mins
BSTAR
0.0017495
Loading maneuver chart data...
Computing Atmospheric mass density...
Loading historical data...
Loading historical data...
Loading historical data...
Loading historical data...
Loading historical data...
Loading historical data...
Loading historical data...
Other satellites on launch #201 in the year 2024 (2024-11-05 UTC)

Documentation

Showing up to 5 results
|